Regional Weather Roundup
Issued by NWS

Home | Current Version | Previous Version | Text Only | Print | Product List | Glossary Off
Versions: 1 2 3 4 5 6 7 8 9 10 11 12 13 14 15 16 17 18 19 20 21 22 23 24 25 26 27 28 29 30 31 32 33 34 35 36 37 38 39 40 41 42 43 44 45 46 47 48 49 50

000
ASUS45 KPSR 302010
RWRAZ

ARIZONA REGIONAL HOURLY WEATHER ROUNDUP
NATIONAL WEATHER SERVICE PHOENIX AZ
100 PM MST TUE SEP 30 2014

NOTE: FAIR INDICATES FEW OR NO CLOUDS BELOW 12,000 FEET WITH NO
SIGNIFICANT WEATHER AND/OR OBSTRUCTIONS TO VISIBILITY.

AZZ001>003-036-302100-
NORTHWEST ARIZONA

CITY           SKY/WX    TMP DP  RH WIND       PRES   REMARKS
BULLHEAD CITY  SUNNY     88  37  16 CALM      29.82F
KINGMAN        SUNNY     79  36  21 N5        29.95F
$$

AZZ004>008-015-016-018-302100-
NORTH CENTRAL ARIZONA

CITY           SKY/WX    TMP DP  RH WIND       PRES   REMARKS
GRAND CANYON   SUNNY     64  36  35 W12G20    30.09F
PRESCOTT       SUNNY     72  36  26 N7        30.02F
FLAGSTAFF      SUNNY     65  34  31 VRB6      30.10F
PAYSON         SUNNY     72  37  28 VRB6      30.04F
$$

AZZ009>014-017-302100-
NORTHEAST ARIZONA

CITY           SKY/WX    TMP DP  RH WIND       PRES   REMARKS
WINSLOW        SUNNY     72  37  28 VRB3      30.00F
SAINT JOHNS    SUNNY     69  32  25 W9G16     30.02F
WINDOW ROCK    SUNNY     65  31  28 W13       30.06F
SHOW LOW       SUNNY     64  28  25 W10       30.09F
$$

AZZ023-302100-
GREATER PHOENIX AREA

CITY           SKY/WX    TMP DP  RH WIND       PRES   REMARKS
PHOENIX        MOSUNNY   86  43  22 CALM      29.82F
BUCKEYE          N/A     82  46  28 SE3       29.83F
GLENDALE       MOSUNNY   84  46  26 VRB3      29.84F
LUKE AFB       SUNNY     85  47  27 SW6       29.82F
DEER VALLEY    SUNNY     82  41  23 VRB5      29.83F
SCOTTSDALE     SUNNY     84  44  24 VRB6      29.85F
MESA-GATEWAY   SUNNY     82  43  24 CALM      29.87F
CHANDLER       SUNNY     84  45  24 VRB5      29.84F
$$

AZZ027-028-302100-
SOUTHWEST MARICOPA COUNTY AND PINAL COUNTY

CITY           SKY/WX    TMP DP  RH WIND       PRES   REMARKS
CASA GRANDE    SUNNY     84  37  18 SW3       29.85F
$$

AZZ503-504-507>509-302100-
SOUTHEAST ARIZONA

CITY           SKY/WX    TMP DP  RH WIND       PRES   REMARKS
TUCSON         SUNNY     85  32  15 CALM      29.90F
DAVIS-MONTHAN  SUNNY     82  32  16 VRB2      29.88F
RYAN FIELD       N/A     84  34  16 CALM      29.89F
NOGALES        SUNNY     82  33  17 CALM      29.95F
SIERRA VISTA   MOSUNNY   81  34  18 SW8G21    29.98F
DOUGLAS        SUNNY     81  50  33 VRB5      29.94F
SAFFORD        SUNNY     82  33  17 VRB5      29.89F
$$

AZZ020-021-025-026-031-302100-
SOUTHWEST ARIZONA

CITY           SKY/WX    TMP DP  RH WIND       PRES   REMARKS
YUMA           MOSUNNY   93  33  12 NE6       29.78F
$$

CAZ031-033-041-043-047-048-061-302100-
SOUTHERN CALIFORNIA

CITY           SKY/WX    TMP DP  RH WIND       PRES   REMARKS
DOWNTOWN L.A.  SUNNY     85  56  37 CALM      29.81F
L.A. AIRPORT   SUNNY     76  59  55 W10       29.84F
SAN DIEGO      MOSUNNY   76  63  64 W9        29.84F
BURBANK        SUNNY     86  42  21 SE3       29.83F
ONTARIO        SUNNY     88  44  21 SW8       29.84F
RIVERSIDE      SUNNY     87  42  20 W7        29.83F
PALM SPRINGS   SUNNY     93  34  12 E6        29.80F
EL CENTRO NAS  SUNNY     92  39  15 VRB5      29.77F
IMPERIAL       SUNNY     91  40  16 VRB3      29.77F
BLYTHE         SUNNY     90  42  18 NE3       29.80F
NEEDLES        SUNNY     90  37  15 E7        29.82F
$$

NVZ020-UTZ003-302100-
SOUTHERN NEVADA-UTAH

CITY           SKY/WX    TMP DP  RH WIND       PRES   REMARKS
LAS VEGAS      MOSUNNY   82  37  20 S7        29.84F
SALT LAKE CITY PTSUNNY   63  41  44 N6        29.95F
$$

NMZ009-TXZ055-302100-
NEW MEXICO-WEST TEXAS

CITY           SKY/WX    TMP DP  RH WIND       PRES   REMARKS
ALBUQUERQUE    MOSUNNY   71  31  22 NW10G17   29.97F
EL PASO        MOSUNNY   84  48  28 W17       29.90F
$$


........................KEY........................
SKY/WX - SKY CONDITION/WEATHER
TMP    - TEMPERATURE IN FAHRENHEIT
DP     - DEW POINT IN FAHRENHEIT
RH     - RELATIVE HUMIDITY IN PERCENT
WIND   - DIRECTION AND SPEED IN MILES PER HOUR (MPH)
VRB    - VARIABLE WIND DIRECTION
PRES   - MEAN SEA LEVEL PRESSURE IN INCHES OF MERCURY
         F - FALLING PRESSURE   R - RISING PRESSURE
         S - STEADY PRESSURE
VSB    - VISIBILITY IN MILES
HX     - HEAT INDEX IN FAHRENHEIT
WCI    - WIND CHILL INDEX IN FAHRENHEIT
TC     - TEMPERATURE IN CELSIUS WHICH IS ALSO KNOWN AS
         TEMPERATURE IN CENTIGRADE
AFB    - AIR FORCE BASE
         LUKE AFB IS LUKE AIR FORCE BASE
         DAVIS-MONTHAN IS DAVIS-MONTHAN AIR FORCE BASE
NAS    - NAVAL AIR STATION
         EL CENTRO NAS IS EL CENTRO NAVAL AIR STATION
N/A    - NOT AVAILABLE



USA.gov is the U.S. government's official web portal to all federal, state and local government web resources and services.